CDT,Max TemperatureF,Mean TemperatureF,Min TemperatureF,Max Dew PointF,MeanDew PointF,Min DewpointF,Max Humidity, Mean Humidity, Min Humidity, Max Sea Level PressureIn, Mean Sea Level PressureIn, Min Sea Level PressureIn, Max VisibilityMiles, Mean VisibilityMiles, Min VisibilityMiles, Max Wind SpeedMPH, Mean Wind SpeedMPH, Max Gust SpeedMPH,PrecipitationIn, CloudCover, Events, WindDirDegrees
2012-10-1,75,63,51,53,49,37,93,63,36,29.88,29.85,29.81,,,,7,1,,0.00,,,349
2012-10-2,77,64,52,54,46,37,89,57,36,29.93,29.89,29.84,,,,7,4,,0.00,,,350
2012-10-3,77,62,46,51,47,44,90,64,31,29.98,29.94,29.89,,,,10,2,18,0.00,,,184
2012-10-4,61,53,46,50,45,40,90,75,57,30.27,30.16,29.99,,,,7,4,22,0.09,,,209
2012-10-5,48,41,33,43,35,30,89,70,52,30.32,30.30,30.27,,,,8,4,17,0.00,,,351
2012-10-6,48,40,32,31,29,26,92,64,46,30.39,30.33,30.29,,,,9,2,16,0.00,,,341
2012-10-7,57,42,28,32,27,22,89,60,27,30.35,30.27,30.16,,,,10,2,,0.00,,,208
2012-10-8,63,48,33,35,32,27,82,55,34,30.17,30.07,29.96,,,,17,7,28,0.00,,,191
2012-10-9,66,54,42,45,38,27,76,59,43,30.13,29.97,29.89,,,,12,7,24,0.00,,,202
2012-10-10,64,46,30,34,29,25,88,56,25,30.31,30.22,30.15,,,,7,2,,0.00,,,285
2012-10-11,70,53,37,51,41,32,83,60,42,30.25,30.14,30.07,,,,13,5,20,0.00,,,174
2012-10-12,61,54,48,47,35,26,64,48,39,30.37,30.27,30.12,,,,14,10,21,0.00,,,94
2012-10-13,70,62,55,65,60,49,93,88,72,30.09,29.86,29.65,,,,17,9,26,0.98,,,164
2012-10-14,66,56,46,61,50,40,90,71,43,29.99,29.76,29.54,,,,15,7,26,0.18,,,271
2012-10-15,71,56,41,47,42,39,93,63,38,30.04,29.97,29.87,,,,7,1,,0.00,,,141
2012-10-16,81,66,53,52,49,45,80,56,36,29.85,29.62,29.50,,,,17,8,30,0.00,,,185
2012-10-17,68,60,52,56,47,36,83,63,42,29.60,29.49,29.43,,,,12,7,21,0.08,,,226
2012-10-18,55,50,46,42,32,26,83,51,32,29.60,29.58,29.56,,,,18,9,33,0.02,,,270
2012-10-19,51,48,46,42,41,40,86,76,66,29.84,29.72,29.58,,,,14,10,28,0.03,,,297
2012-10-20,64,52,39,44,42,36,93,68,43,29.90,29.84,29.78,,,,8,3,,0.00,,,135
2012-10-21,80,65,50,63,54,43,77,66,55,29.86,29.82,29.77,,,,12,6,21,0.00,,,140
2012-10-22,79,72,66,68,65,63,93,77,64,29.83,29.80,29.75,,,,14,7,24,0.22,,,162
2012-10-23,79,72,66,65,64,61,87,76,62,29.83,29.78,29.71,,,,15,9,26,0.01,,,173
2012-10-24,82,76,69,66,64,61,81,68,54,29.82,29.76,29.70,,,,18,12,26,0.00,,,181
2012-10-25,73,58,39,61,46,29,89,72,62,30.33,29.90,29.63,,,,18,12,29,0.06,,,291
2012-10-26,50,41,34,29,27,26,79,60,44,30.50,30.43,30.34,,,,12,7,21,0.00,,,354
2012-10-27,46,36,25,28,25,22,88,71,46,30.47,30.40,30.33,,,,6,2,,0.00,,,16
2012-10-28,51,40,28,28,26,23,85,64,35,30.41,30.36,30.30,,,,5,1,,0.00,,,36
2012-10-29,52,40,28,32,29,23,82,65,43,30.38,30.31,30.20,,,,9,2,,0.00,,,137
2012-10-30,57,42,28,29,26,23,88,58,30,30.20,30.11,30.03,,,,7,2,,0.00,,,5
2012-10-31,59,46,34,33,28,23,82,56,27,30.10,30.05,30.01,,,,8,3,,0.00,,,342